This is the latest recevied weather packets stored in our database for station/object KC0UFP. If no packets are shown the sender has not sent any weather packets the latest 10 day(s).
| Time | Temp. | Humidity | Pressure | Rain* | Wind** | Luminosity | Snow |
|---|---|---|---|---|---|---|---|
| 1777769093 | 16.11° C | 45% | 1018 hPa | 0 mm | - | 7 W/m² | - |
| 1777768791 | 16.67° C | 42% | 1018.2 hPa | 0 mm | - | 11 W/m² | - |
| 1777768487 | 16.67° C | 40% | 1018.1 hPa | 0 mm | - | 16 W/m² | - |
| 1777768184 | 16.67° C | 39% | 1017.8 hPa | 0 mm | - | 21 W/m² | - |
| 1777767882 | 16.67° C | 39% | 1017.9 hPa | 0 mm | - | 25 W/m² | - |
| 1777767578 | 17.22° C | 38% | 1017.7 hPa | 0 mm | - | 30 W/m² | - |
| 1777767275 | 17.22° C | 37% | 1017.8 hPa | 0 mm | - | 35 W/m² | - |
| 1777766972 | 17.22° C | 37% | 1017.6 hPa | 0 mm | - | 39 W/m² | - |
| 1777766669 | 17.22° C | 36% | 1017.5 hPa | 0 mm | - | 44 W/m² | - |
| 1777766367 | 17.78° C | 36% | 1017.5 hPa | 0 mm | - | 48 W/m² | - |
| 1777766063 | 17.78° C | 36% | 1017.6 hPa | 0 mm | - | 69 W/m² | - |
| 1777765761 | 17.78° C | 35% | 1017.5 hPa | 0 mm | - | 97 W/m² | - |
| 1777765457 | 17.78° C | 35% | 1017.6 hPa | 0 mm | - | 109 W/m² | - |
| 1777765154 | 17.78° C | 35% | 1017.4 hPa | 0 mm | - | 123 W/m² | - |
| 1777764849 | 18.33° C | 35% | 1017.5 hPa | 0 mm | - | 136 W/m² | - |
| 1777764547 | 18.33° C | 35% | 1017.3 hPa | 0 mm | - | 151 W/m² | - |
| 1777764243 | 18.89° C | 35% | 1017.3 hPa | 0 mm | - | 165 W/m² | - |
| 1777763940 | 18.89° C | 33% | 1017.4 hPa | 0 mm | - | 182 W/m² | - |
| 1777763638 | 18.89° C | 34% | 1017.3 hPa | 0 mm | - | 187 W/m² | - |
| 1777763336 | 18.33° C | 34% | 1017.4 hPa | 0 mm | - | 110 W/m² | - |
| 1777763034 | 18.89° C | 34% | 1017.4 hPa | 0 mm | - | 209 W/m² | - |
| 1777762730 | 18.89° C | 35% | 1017.2 hPa | 0 mm | - | 266 W/m² | - |
| 1777762426 | 18.89° C | 35% | 1017.3 hPa | 0 mm | - | 318 W/m² | - |
| 1777762124 | 18.33° C | 33% | 1017 hPa | 0 mm | - | 351 W/m² | - |
| 1777761820 | 18.33° C | 34% | 1017.3 hPa | 0 mm | - | 120 W/m² | - |
* Rain latest hour (hover to see other rain measurements)
** Current wind speed in m/s (hover to see current wind gust speed)